Simultaneous Nadir Overpasses (SNOs) Predictions

Prediction of SNOs between AQUA and METOP-A Satellite Orbit:

Table of predicted SNOs for the next 14.0 days since TLE Epoch: 1/1/2016
Index Date (AQUA) Time (AQUA) Lat,Lon (AQUA) SZA (AQUA ) Date (METOP-A) Time (METOP-A) Lat,Lon (METOP-A) SZA (METOP-A ) Distance(km) Time Diff (sec)
1 01/03/2016 00:15:56 73.14, 171.60 96.01 01/03/2016 00:14:51 73.11, 168.62 96.08 96.32 65
2 01/03/2016 01:05:36 -73.88, -22.33 83.22 01/03/2016 01:05:17 -73.89, -22.26 83.21 2.32 19
3 01/03/2016 01:55:04 73.92, 145.21 96.83 01/03/2016 01:55:56 73.94, 145.19 96.84 1.56 52
4 01/05/2016 19:50:16 73.50,-122.71 96.11 01/05/2016 19:49:06 73.48,-124.15 96.14 45.66 70
5 01/05/2016 20:39:49 -73.88, 44.13 83.50 01/05/2016 20:39:40 -73.86, 44.08 83.52 2.53 9
6 01/05/2016 21:29:18 73.97,-148.45 96.60 01/05/2016 21:30:18 73.95,-148.36 96.57 3.22 60
7 01/08/2016 15:24:35 73.78, -56.86 96.07 01/08/2016 15:23:23 73.79, -57.00 96.09 4.75 72
8 01/08/2016 16:14:03 -73.89, 110.55 83.83 01/08/2016 16:14:03 -73.87, 110.52 83.84 1.87 0
9 01/08/2016 17:03:31 73.93, -81.92 96.22 01/08/2016 17:04:41 73.97, -81.91 96.25 3.82 70
10 01/11/2016 10:58:49 73.82, 9.51 95.71 01/11/2016 10:57:46 73.80, 9.43 95.71 3.08 63
11 01/11/2016 11:48:16 -73.87, 177.04 84.24 01/11/2016 11:48:26 -73.88, 176.96 84.23 2.83 10
12 01/11/2016 12:37:49 74.18, -16.03 96.09 01/11/2016 12:39:00 74.18, -14.99 96.04 31.55 71
13 01/14/2016 06:33:01 73.82, 75.95 95.27 01/14/2016 06:32:08 73.81, 75.86 95.26 3.31 53
14 01/14/2016 07:22:28 -73.87,-116.52 84.69 01/14/2016 07:22:48 -73.89,-116.62 84.67 3.34 20




NCC Satellite Simultaneous Nadir Overpasses (SNOs) Prediction Service
